Flag for Japan Weather past 2 weeks in Sapporo, Japan

Now
32 °F

Overcast.


Feels Like: 24 °F
Forecast: 28 / 41 °F
Wind: 9 mph from South

Location: Sapporo

Current Time: Dec 19, 2014 at 6:43:25 PM

Latest Report: Dec 19, 2014 at 6:00 PM


Visibility: 9 mi

Pressure: 30.28 "Hg

Humidity: 60%

Dew point: 20 °F

Location of SapporoLocation

Historic Weather in Sapporo — Graph

°F

Sapporo temperature yesterday

Maximum temperature yesterday: 36 °F (at 2:00 AM)
Minimum temperature yesterday: 30 °F (at 12:00 AM)
Average temperature yesterday: 34 °F

Past Weeks' High & Low Weather Summary

 TemperatureHumidityPressure
High40 °F (Dec 11, 12:00 PM)95% (Dec 19, 6:00 AM)30.31 "Hg (Dec 19, 6:00 AM)
Low19 °F (Dec 14, 12:00 AM)32% (Dec 14, 12:00 PM)29.00 "Hg (Dec 17, 5:00 AM)
Average29 °F68%29.85 "Hg
* Reported Dec 4 5:00 PM — Dec 19 5:00 PM, Sapporo, Weather by CustomWeather, © 2014

Note: Actual official high and low records may vary slightly from our data, if they occured in-between our weather recording intervals... More about our weather records

Advertising

Sapporo weather history for previous 24 hours

 ConditionsComfort  
Time TempWeatherWind HumidityBarometerVisibility
5:00 PM
Dec 19
33 °FChilly.6 mph58%30.28 "HgN/A
4:00 PM33 °FChilly.5 mph58%30.28 "HgN/A
3:00 PM33 °FOvercast.2 mph72%30.27 "Hg12 mi
2:00 PM34 °FChilly.1 mph72%30.25 "HgN/A
1:00 PM33 °FChilly.3 mph82%30.25 "HgN/A
11:00 AM33 °FChilly.3 mph77%30.27 "HgN/A
10:00 AM31 °FChilly.3 mph78%30.29 "HgN/A
9:00 AM29 °FOvercast.1 mph87%30.28 "Hg9 mi
8:00 AM30 °FChilly.2 mph91%30.27 "HgN/A
7:00 AM28 °FChilly.2 mph92%30.26 "HgN/A
6:00 AM31 °FSnow flurries. Overcast.5 mph95%30.24 "Hg2 mi
5:00 AM31 °FChilly.2 mph93%30.22 "HgN/A
4:00 AM31 °FChilly.2 mph89%30.20 "HgN/A
3:00 AM30 °FSnow flurries. Overcast.1 mph90%30.19 "Hg2 mi
2:00 AM31 °FChilly.3 mph83%30.17 "HgN/A
1:00 AM32 °FChilly.7 mph69%30.15 "HgN/A
12:00 AM31 °FChilly.2 mph60%30.13 "HgN/A
11:00 PM
Dec 18
31 °FChilly.1 mph68%30.12 "HgN/A
10:00 PM31 °FChilly.1 mph56%30.10 "HgN/A
9:00 PM31 °FOvercast.5 mph56%30.07 "Hg6 mi
8:00 PM31 °FChilly.3 mph61%30.03 "HgN/A
7:00 PM32 °FChilly.5 mph64%30.00 "HgN/A
6:00 PM32 °FOvercast.6 mph63%29.96 "Hg6 mi
Weather by CustomWeather, © 2014

See weather overviewHow to use our weather pages